Location: ?ern� Novina
(50.6762°N, 14.8696°E)
Time: 14:06:26
(UTC+00:00)

SeaSat 1 - Pass Details

Date: 03 March 2021
Orbit: 744 x 748 km, 108.0° (Epoch: 10 April)

Event Time Altitude Azimuth Distance (km) Brightness Sun altitude
Rises 19:31:55 0° 26° (NNE) 3,203 5.7 -26.6°
Reaches altitude 10° 19:34:20 10° 17° (NNE) 2,276 5.0 -27.0°
Maximum altitude 19:38:48 35° 313° (NW) 1,194 3.9 -27.6°
Drops below altitude 10° 19:43:15 10° 249° (WSW) 2,266 5.4 -28.2°
Sets 19:45:39 0° 240° (WSW) 3,187 6.1 -28.6°
